FW7490 Weather Reports


time (UTC)temp
C
wind
direction
speed
KPH
gust
KPH
rain 1hr
cm
rain 24hr
cm
rain mn
cm
humidity
%
barometer
mb
20260508224602 21 5 1.6 8.0 0.00 0.00 0.00 26 1012.3
20260508223053 21 269 1.6 9.7 0.00 0.00 0.00 29 1012.4
20260508221552 21 33 3.2 8.0 0.00 0.00 0.00 25 1012.4
20260508220117 21 326 4.8 14.5 0.00 0.00 0.00 25 1012.6
20260508214552 21 9 1.6 6.4 0.00 0.00 0.00 25 1012.6
20260508213053 21 309 3.2 9.7 0.00 0.00 0.00 24 1012.3
20260508211550 21 5 1.6 14.5 0.00 0.00 0.00 25 1012.3
20260508210046 21 257 6.4 14.5 0.00 0.00 0.00 24 1012.4
20260508204546 21 231 6.4 12.9 0.00 0.00 0.00 25 1012.5
20260508203046 20 309 3.2 16.1 0.00 0.00 0.00 28 1012.7
20260508201545 20 119 1.6 12.9 0.00 0.00 0.00 28 1013.0
20260508200038 20 238 3.2 11.3 0.00 0.00 0.00 26 1013.6
20260508194536 20 163 4.8 17.7 0.00 0.00 0.00 25 1014.0
20260508193034 20 238 8.0 16.1 0.00 0.00 0.00 24 1014.3
20260508191531 20 62 1.6 9.7 0.00 0.00 0.00 23 1014.4
20260508190034 20 88 1.6 8.0 0.00 0.00 0.00 25 1014.5
20260508184539 20 196 3.2 16.1 0.00 0.00 0.00 23 1014.9
20260508183027 20 143 3.2 11.3 0.00 0.00 0.00 24 1015.1
20260508181532 19 175 1.6 9.7 0.00 0.00 0.00 26 1015.2
20260508180024 19 250 1.6 11.3 0.00 0.03 0.00 22 1015.3
20260508174530 18 267 3.2 12.9 0.00 0.03 0.00 20 1015.5
20260508173017 18 240 1.6 4.8 0.00 0.03 0.00 22 1015.7
20260508171516 17 265 1.6 8.0 0.00 0.03 0.00 23 1016.1
20260508170014 17 226 3.2 8.0 0.00 0.03 0.00 26 1016.6
20260508164510 17 170 3.2 8.0 0.00 0.03 0.00 25 1016.8
20260508163009 17 265 3.2 6.4 0.00 0.03 0.00 35 1017.1
20260508161504 16 22 3.2 8.0 0.00 0.03 0.00 34 1017.2
20260508160105 16 333 0.0 4.8 0.00 0.03 0.00 36 1017.6
20260508154556 16 227 1.6 6.4 0.00 0.03 0.00 41 1017.8
20260508153054 15 36 3.2 12.9 0.00 0.03 0.00 43 1017.9
20260508151548 15 60 3.2 6.4 0.00 0.03 0.00 46 1018.1
20260508150044 13 173 0.0 4.8 0.00 0.08 0.00 64 1018.2
20260508144539 12 211 3.2 4.8 0.00 0.08 0.00 70 1018.3
20260508143036 12 130 0.0 4.8 0.00 0.08 0.00 77 1018.4
20260508141533 11 235 3.2 8.0 0.00 0.08 0.00 79 1018.3
20260508140035 10 116 1.6 6.4 0.00 0.08 0.00 79 1018.4
20260508134531 8 32 0.0 0.0 0.00 0.08 0.00 79 1018.3
20260508133021 8 98 0.0 4.8 0.00 0.08 0.00 79 1018.3
20260508131519 7 214 1.6 6.4 0.00 0.08 0.00 79 1018.2
20260508130017 7 119 0.0 1.6 0.00 0.10 0.00 79 1018.2
20260508124515 6 83 0.0 0.0 0.00 0.10 0.00 79 1018.3
20260508123013 6 83 0.0 4.8 0.00 0.10 0.00 79 1018.2
20260508121513 6 98 0.0 3.2 0.00 0.10 0.00 79 1018.0
20260508120011 5 98 0.0 0.0 0.00 0.10 0.00 79 1017.7
20260508114505 5 98 0.0 0.0 0.00 0.10 0.00 79 1017.6
20260508113001 5 98 0.0 3.2 0.00 0.10 0.00 79 1017.4
20260508111558 5 98 1.6 3.2 0.00 0.10 0.00 79 1017.1
20260508110055 5 98 0.0 3.2 0.00 0.10 0.00 79 1016.9
20260508104552 4 98 0.0 0.0 0.00 0.10 0.00 79 1016.7
20260508103051 4 98 0.0 0.0 0.00 0.10 0.00 78 1016.6
20260508101549 5 98 0.0 0.0 0.00 0.10 0.00 79 1016.3
20260508100048 4 98 0.0 0.0 0.00 0.10 0.00 78 1016.2
20260508094606 5 98 0.0 0.0 0.00 0.10 0.00 78 1016.2
20260508093045 5 98 0.0 0.0 0.00 0.10 0.00 78 1016.1
20260508091544 5 98 0.0 0.0 0.00 0.10 0.00 78 1016.1
20260508090048 5 98 0.0 0.0 0.00 0.15 0.00 78 1016.0
20260508084539 5 98 0.0 0.0 0.00 0.15 0.00 78 1015.8
20260508083037 6 98 0.0 0.0 0.00 0.15 0.00 78 1015.6
20260508081636 6 98 0.0 0.0 0.00 0.15 0.00 78 1015.7
20260508080032 6 98 0.0 0.0 0.00 0.18 0.00 78 1015.7
20260508074531 6 98 0.0 0.0 0.00 0.18 0.00 78 1015.7
20260508073030 6 98 0.0 0.0 0.00 0.18 0.00 78 1015.7
20260508071539 7 98 0.0 0.0 0.00 0.18 0.00 78 1015.7
20260508070026 7 98 0.0 0.0 0.00 0.18 0.00 78 1015.5
20260508064527 7 98 0.0 0.0 0.00 0.18 0.00 78 1015.6
20260508063032 7 98 0.0 0.0 0.00 0.18 0.00 78 1015.5
20260508061523 7 98 0.0 0.0 0.00 0.18 0.00 79 1015.7
20260508060022 7 98 0.0 0.0 0.00 0.23 0.00 78 1015.7
20260508054522 7 98 0.0 0.0 0.00 0.23 0.00 78 1015.7
20260508053023 7 98 0.0 0.0 0.00 0.23 0.00 78 1015.9
20260508051522 7 98 0.0 0.0 0.00 0.23 0.00 77 1015.8
20260508050017 8 98 0.0 0.0 0.00 0.23 0.00 78 1015.6
20260508044514 8 98 0.0 0.0 0.00 0.23 0.00 78 1015.3
20260508043013 8 98 0.0 0.0 0.00 0.23 0.00 78 1015.3
20260508041511 8 98 0.0 0.0 0.00 0.23 0.00 78 1015.2
20260508040009 8 98 0.0 0.0 0.00 0.25 0.23 77 1015.1
20260508034508 8 98 0.0 0.0 0.00 0.25 0.23 76 1015.1
20260508033007 8 98 0.0 0.0 0.00 0.25 0.23 76 1014.9
20260508031507 8 98 0.0 0.0 0.00 0.25 0.23 76 1015.0
20260508030007 8 98 0.0 0.0 0.00 0.25 0.23 73 1015.0
20260508024502 8 98 0.0 0.0 0.00 0.25 0.23 73 1014.8
20260508023059 9 98 0.0 0.0 0.00 0.25 0.23 73 1014.4
20260508021557 10 98 0.0 0.0 0.00 0.25 0.23 73 1014.1
20260508014553 11 98 0.0 0.0 0.00 0.28 0.23 72 1013.9
20260508013049 11 98 0.0 0.0 0.00 0.28 0.23 72 1013.5
20260508011546 11 98 0.0 0.0 0.00 0.28 0.23 72 1013.3
20260508010044 12 98 0.0 0.0 0.00 0.36 0.23 72 1013.1
20260508004544 12 230 0.0 0.0 0.00 0.36 0.23 72 1013.0
20260508003043 13 111 0.0 0.0 0.00 0.36 0.23 71 1012.8
20260508001542 13 271 0.0 3.2 0.00 0.36 0.23 71 1012.5
20260508000043 13 272 0.0 4.8 0.00 0.38 0.23 70 1012.4
20260507234541 14 206 0.0 3.2 0.00 0.38 0.23 69 1012.7
20260507233045 15 219 0.0 3.2 0.00 0.38 0.23 69 1012.5
20260507231541 15 203 0.0 1.6 0.00 0.38 0.23 69 1012.5
20260507230048 14 203 1.6 8.0 0.00 0.38 0.23 69 1012.6